This is the latest recevied weather packets stored in our database for station/object DL3MEB-6. If no packets are shown the sender has not sent any weather packets the latest 10 day(s).
| Time | Temp. | Humidity | Pressure | Rain* | Wind** | Luminosity | Snow |
|---|---|---|---|---|---|---|---|
| 1777386770 | 23.33° C | 24% | 1015.6 hPa | 0 mm | - | - | - |
| 1777385870 | 23.33° C | 23% | 1015.7 hPa | 0 mm | - | - | - |
| 1777384959 | 22.78° C | 24% | 1015.7 hPa | 0 mm | - | - | - |
| 1777384055 | 22.78° C | 27% | 1016 hPa | 0 mm | - | - | - |
| 1777383204 | 22.22° C | 25% | 1016.2 hPa | 0 mm | - | - | - |
| 1777383148 | 22.22° C | 25% | 1016.2 hPa | 0 mm | - | - | - |
| 1777382246 | 22.22° C | 29% | 1016.2 hPa | 0 mm | - | - | - |
| 1777381337 | 21.67° C | 29% | 1016.2 hPa | 0 mm | - | - | - |
| 1777380422 | 21.67° C | 28% | 1016.3 hPa | 0 mm | - | - | - |
| 1777379516 | 21.11° C | 31% | 1016.3 hPa | 0 mm | - | - | - |
| 1777378609 | 21.11° C | 30% | 1016.5 hPa | 0 mm | - | - | - |
| 1777377700 | 20.56° C | 31% | 1016.5 hPa | 0 mm | - | - | - |
| 1777376788 | 20° C | 35% | 1016.6 hPa | 0 mm | - | - | - |
| 1777375883 | 20° C | 34% | 1016.9 hPa | 0 mm | - | - | - |
| 1777374975 | 19.44° C | 35% | 1016.9 hPa | 0 mm | - | - | - |
| 1777374070 | 19.44° C | 35% | 1017 hPa | 0 mm | - | - | - |
| 1777373171 | 18.89° C | 38% | 1017 hPa | 0 mm | - | - | - |
| 1777372261 | 18.33° C | 38% | 1017.2 hPa | 0 mm | - | - | - |
| 1777371351 | 17.78° C | 39% | 1017.3 hPa | 0 mm | - | - | - |
| 1777370444 | 17.22° C | 40% | 1017.3 hPa | 0 mm | - | - | - |
| 1777369537 | 16.67° C | 44% | 1017.4 hPa | 0 mm | - | - | - |
| 1777368637 | 16.11° C | 45% | 1017.5 hPa | 0 mm | - | - | - |
| 1777367732 | 15° C | 47% | 1017.5 hPa | 0 mm | - | - | - |
| 1777366823 | 14.44° C | 46% | 1017.7 hPa | 0 mm | - | - | - |
| 1777365920 | 13.89° C | 49% | 1017.7 hPa | 0 mm | - | - | - |
* Rain latest hour (hover to see other rain measurements)
** Current wind speed in m/s (hover to see current wind gust speed)